Overview Statistics Trail Chart Weather Telemetry Raw packets
 

This is the latest recevied weather packets stored in our database for station/object NT9G. If no packets are shown the sender has not sent any weather packets the latest 10 day(s).

<< 79 80 81 82 83 84 85 >>
Time Temp. Humidity Pressure Rain* Wind** Luminosity Snow
1777237086 27.22° C 28% 1012.7 hPa 0 mm - - -
1777236786 26.67° C 25% 1012.7 hPa 0 mm - - -
1777236486 27.22° C 28% 1012.7 hPa 0 mm - - -
1777236185 26.67° C 28% 1012.8 hPa 0 mm - - -
1777235885 27.22° C 29% 1012.9 hPa 0 mm - - -
1777235584 27.22° C 29% 1012.9 hPa 0 mm - - -
1777235284 27.22° C 31% 1013 hPa 0 mm - - -
1777234684 26.67° C 33% 1013.2 hPa 0 mm - - -
1777234383 26.11° C 32% 1013.3 hPa 0 mm - - -
1777234083 26.11° C 30% 1013.5 hPa 0 mm - - -
1777233783 26.11° C 30% 1013.6 hPa 0 mm - - -
1777233483 26.11° C 33% 1013.8 hPa 0 mm - - -
1777233182 25.56° C 33% 1013.9 hPa 0 mm - - -
1777232882 25.56° C 32% 1013.8 hPa 0 mm - - -
1777232582 26.11° C 35% 1014.1 hPa 0 mm - - -
1777232281 25.56° C 34% 1014.3 hPa 0 mm - - -
1777231981 25.56° C 34% 1014.3 hPa 0 mm - - -
1777231681 25.56° C 36% 1014.5 hPa 0 mm - - -
1777231381 25° C 35% 1014.5 hPa 0 mm - - -
1777231080 25° C 36% 1014.5 hPa 0 mm - - -
1777230780 25.56° C 35% 1014.6 hPa 0 mm - - -
1777230480 25.56° C 36% 1014.7 hPa 0 mm - - -
1777230179 25.56° C 34% 1014.7 hPa 0 mm - - -
1777229879 25.56° C 35% 1014.7 hPa 0 mm - - -
1777229579 25.56° C 34% 1014.9 hPa 0 mm - - -

* Rain since midnight (hover to see other rain measurements)
** Current wind speed in m/s (hover to see current wind gust speed)